owner,sensor,date,latitude,longitude,vertical_datum,direction_of_sea_water_velocity,sea_water_speed,upward_sea_water_velocity,qcFlag 
TABS,ioos:station:wmo:42049:1,2011-08-01T00:00:00Z,28.3507,-96.0058,2.0,334.5768314,2.469109151,-99999.0,'11133222,11111222,99999999' 
TABS,ioos:station:wmo:42049:1,2011-08-01T00:30:00Z,28.3507,-96.0058,2.0,338.3531025,6.207817652,-99999.0,'11133222,11111222,99999999' 
TABS,ioos:station:wmo:42049:1,2011-08-01T01:00:00Z,28.3507,-96.0058,2.0,336.5660849,3.193399443,-99999.0,'11133222,11111222,99999999' 
TABS,ioos:station:wmo:42049:1,2011-08-01T01:30:00Z,28.3507,-96.0058,2.0,318.731704,1.955760722,-99999.0,'11133222,11111222,99999999' 
TABS,ioos:station:wmo:42049:1,2011-08-01T02:00:00Z,28.3507,-96.0058,2.0,247.3586908,8.364615951,-99999.0,'11133222,11111222,99999999' 
TABS,ioos:station:wmo:42049:1,2011-08-01T02:30:00Z,28.3507,-96.0058,2.0,253.0525374,9.743100123,-99999.0,'11133222,11111222,99999999' 
TABS,ioos:station:wmo:42049:1,2011-08-01T03:00:00Z,28.3507,-96.0058,2.0,251.2326354,9.822199346,-99999.0,'11133222,11111222,99999999' 
TABS,ioos:station:wmo:42049:1,2011-08-01T03:30:00Z,28.3507,-96.0058,2.0,260.8138169,10.89977981,-99999.0,'11111222,11111222,99999999' 
TABS,ioos:station:wmo:42049:1,2011-08-01T04:00:00Z,28.3507,-96.0058,2.0,264.6314126,8.657973204,-99999.0,'11133222,11111222,99999999' 
TABS,ioos:station:wmo:42049:1,2011-08-01T04:30:00Z,28.3507,-96.0058,2.0,283.7436117,7.11366291,-99999.0,'11133222,11111222,99999999' 
TABS,ioos:station:wmo:42049:1,2011-08-01T05:00:00Z,28.3507,-96.0058,2.0,274.9043098,10.17725405,-99999.0,'11111222,11111222,99999999' 
TABS,ioos:station:wmo:42049:1,2011-08-01T05:30:00Z,28.3507,-96.0058,2.0,274.2179407,8.974302201,-99999.0,'11133222,11111222,99999999' 
TABS,ioos:station:wmo:42049:1,2011-08-01T06:00:00Z,28.3507,-96.0058,2.0,302.8269234,7.913696987,-99999.0,'11133222,11111222,99999999' 
TABS,ioos:station:wmo:42049:1,2011-08-01T06:30:00Z,28.3507,-96.0058,2.0,283.3960246,8.460171393,-99999.0,'11133222,11111222,99999999' 
TABS,ioos:station:wmo:42049:1,2011-08-01T07:00:00Z,28.3507,-96.0058,2.0,287.9906087,4.889028533,-99999.0,'11133222,11111222,99999999' 
TABS,ioos:station:wmo:42049:1,2011-08-01T07:30:00Z,28.3507,-96.0058,2.0,313.6243258,5.594827969,-99999.0,'11133222,11111222,99999999' 
TABS,ioos:station:wmo:42049:1,2011-08-01T08:00:00Z,28.3507,-96.0058,2.0,334.6094919,6.110220945,-99999.0,'11133222,11111222,99999999' 
TABS,ioos:station:wmo:42049:1,2011-08-01T08:30:00Z,28.3507,-96.0058,2.0,337.8383556,4.42706449,-99999.0,'11133222,11111222,99999999' 
TABS,ioos:station:wmo:42049:1,2011-08-01T09:00:00Z,28.3507,-96.0058,2.0,1.397388219,2.870853532,-99999.0,'11133222,11111222,99999999' 
TABS,ioos:station:wmo:42049:1,2011-08-01T09:30:00Z,28.3507,-96.0058,2.0,9.34776641,4.925403537,-99999.0,'11133222,11111222,99999999' 
TABS,ioos:station:wmo:42049:1,2011-08-01T10:00:00Z,28.3507,-96.0058,2.0,32.48245867,3.947568872,-99999.0,'11133222,11111222,99999999' 
TABS,ioos:station:wmo:42049:1,2011-08-01T10:30:00Z,28.3507,-96.0058,2.0,71.70271367,3.949696191,-99999.0,'11133222,11111222,99999999' 
TABS,ioos:station:wmo:42049:1,2011-08-01T11:00:00Z,28.3507,-96.0058,2.0,102.9945864,2.268082891,-99999.0,'11133222,11111222,99999999' 
TABS,ioos:station:wmo:42049:1,2011-08-01T11:30:00Z,28.3507,-96.0058,2.0,116.5649891,2.03482186,-99999.0,'11133222,11111222,99999999' 
TABS,ioos:station:wmo:42049:1,2011-08-01T12:00:00Z,28.3507,-96.0058,2.0,208.6611873,2.689553866,-99999.0,'11133222,11111222,99999999' 
TABS,ioos:station:wmo:42049:1,2011-08-01T12:30:00Z,28.3507,-96.0058,2.0,157.7508179,1.188486432,-99999.0,'11133222,11111222,99999999' 
TABS,ioos:station:wmo:42049:1,2011-08-01T13:00:00Z,28.3507,-96.0058,2.0,118.5952991,3.029537919,-99999.0,'11133222,11111222,99999999' 
TABS,ioos:station:wmo:42049:1,2011-08-01T13:30:00Z,28.3507,-96.0058,2.0,148.9404533,1.027277957,-99999.0,'11133222,11111222,99999999' 
TABS,ioos:station:wmo:42049:1,2011-08-01T14:00:00Z,28.3507,-96.0058,2.0,101.8751362,2.186801317,-99999.0,'11133222,11111222,99999999' 
TABS,ioos:station:wmo:42049:1,2011-08-01T14:30:00Z,28.3507,-96.0058,2.0,119.1160782,0.904267659,-99999.0,'11133222,11111222,99999999' 
TABS,ioos:station:wmo:42049:1,2011-08-01T15:00:00Z,28.3507,-96.0058,2.0,110.6687098,1.784880948,-99999.0,'11133222,11111222,99999999' 
TABS,ioos:station:wmo:42049:1,2011-08-01T15:30:00Z,28.3507,-96.0058,2.0,136.4686921,2.206898276,-99999.0,'11133222,11111222,99999999' 
TABS,ioos:station:wmo:42049:1,2011-08-01T16:00:00Z,28.3507,-96.0058,2.0,141.5023053,3.309335281,-99999.0,'11133222,11111222,99999999' 
TABS,ioos:station:wmo:42049:1,2011-08-01T16:30:00Z,28.3507,-96.0058,2.0,120.9636841,3.207023542,-99999.0,'11133222,11111222,99999999' 
TABS,ioos:station:wmo:42049:1,2011-08-01T17:00:00Z,28.3507,-96.0058,2.0,143.6619268,3.662157834,-99999.0,'11133222,11111222,99999999' 
TABS,ioos:station:wmo:42049:1,2011-08-01T17:30:00Z,28.3507,-96.0058,2.0,208.0089008,1.597059799,-99999.0,'11133222,11111222,99999999' 
TABS,ioos:station:wmo:42049:1,2011-08-01T18:00:00Z,28.3507,-96.0058,2.0,198.4346953,1.328156617,-99999.0,'11133222,11111222,99999999' 
TABS,ioos:station:wmo:42049:1,2011-08-01T18:30:00Z,28.3507,-96.0058,2.0,150.8973473,2.323316595,-99999.0,'11133222,11111222,99999999' 
TABS,ioos:station:wmo:42049:1,2011-08-01T19:00:00Z,28.3507,-96.0058,2.0,129.596116,1.051189802,-99999.0,'11133222,11111222,99999999' 
TABS,ioos:station:wmo:42049:1,2011-08-01T19:30:00Z,28.3507,-96.0058,2.0,227.5332373,2.399437434,-99999.0,'11133222,11111222,99999999' 
TABS,ioos:station:wmo:42049:1,2011-08-01T20:00:00Z,28.3507,-96.0058,2.0,268.4084425,0.720277724,-99999.0,'11133222,11111222,99999999' 
TABS,ioos:station:wmo:42049:1,2011-08-01T20:30:00Z,28.3507,-96.0058,2.0,339.1635838,1.433771251,-99999.0,'11133222,11111222,99999999' 
TABS,ioos:station:wmo:42049:1,2011-08-01T21:00:00Z,28.3507,-96.0058,2.0,209.8152712,4.022449502,-99999.0,'11133222,11111222,99999999' 
TABS,ioos:station:wmo:42049:1,2011-08-01T21:30:00Z,28.3507,-96.0058,2.0,235.8508272,3.117515036,-99999.0,'11133222,11111222,99999999' 
TABS,ioos:station:wmo:42049:1,2011-08-01T22:00:00Z,28.3507,-96.0058,2.0,185.5001881,1.356244816,-99999.0,'11133222,11111222,99999999' 
TABS,ioos:station:wmo:42049:1,2011-08-01T22:30:00Z,28.3507,-96.0058,2.0,65.77231134,0.657951366,-99999.0,'11133222,11111222,99999999' 
TABS,ioos:station:wmo:42049:1,2011-08-01T23:00:00Z,28.3507,-96.0058,2.0,26.39518326,1.507116452,-99999.0,'11133222,11111222,99999999' 
TABS,ioos:station:wmo:42049:1,2011-08-01T23:30:00Z,28.3507,-96.0058,2.0,290.3365587,1.525057376,-99999.0,'11133222,11111222,99999999' 
TABS,ioos:station:wmo:42049:1,2011-08-02T00:00:00Z,28.3507,-96.0058,2.0,2.792906294,0.82097503,-99999.0,'11133222,11111222,99999999' 
TABS,ioos:station:wmo:42049:1,2011-08-02T00:30:00Z,28.3507,-96.0058,2.0,326.1452635,2.89,-99999.0,'11133222,11111222,99999999' 
TABS,ioos:station:wmo:42049:1,2011-08-02T01:00:00Z,28.3507,-96.0058,2.0,330.8027927,2.336921051,-99999.0,'11133222,11111222,99999999' 
TABS,ioos:station:wmo:42049:1,2011-08-02T01:30:00Z,28.3507,-96.0058,2.0,271.1461811,1.00019998,-99999.0,'11133222,11111222,99999999' 
TABS,ioos:station:wmo:42049:1,2011-08-02T02:00:00Z,28.3507,-96.0058,2.0,9.98684887,4.670770814,-99999.0,'11133222,11111222,99999999' 
TABS,ioos:station:wmo:42049:1,2011-08-02T02:30:00Z,28.3507,-96.0058,2.0,348.1554715,3.361577011,-99999.0,'11133222,11111222,99999999' 
TABS,ioos:station:wmo:42049:1,2011-08-02T03:00:00Z,28.3507,-96.0058,2.0,350.0666863,5.796904346,-99999.0,'11133222,11111222,99999999' 
TABS,ioos:station:wmo:42049:1,2011-08-02T03:30:00Z,28.3507,-96.0058,2.0,324.7826998,4.161730409,-99999.0,'11133222,11111222,99999999' 
TABS,ioos:station:wmo:42049:1,2011-08-02T04:00:00Z,28.3507,-96.0058,2.0,354.7183606,7.712749186,-99999.0,'11133222,11111222,99999999' 
TABS,ioos:station:wmo:42049:1,2011-08-02T04:30:00Z,28.3507,-96.0058,2.0,33.62091792,2.293686988,-99999.0,'11133222,11111222,99999999' 
TABS,ioos:station:wmo:42049:1,2011-08-02T05:00:00Z,28.3507,-96.0058,2.0,36.96610937,8.348011739,-99999.0,'11133222,11111222,99999999' 
TABS,ioos:station:wmo:42049:1,2011-08-02T05:30:00Z,28.3507,-96.0058,2.0,24.70258292,8.255452743,-99999.0,'11133222,11111222,99999999' 
TABS,ioos:station:wmo:42049:1,2011-08-02T06:00:00Z,28.3507,-96.0058,2.0,50.37533605,6.491502137,-99999.0,'11133222,11111222,99999999' 
TABS,ioos:station:wmo:42049:1,2011-08-02T06:30:00Z,28.3507,-96.0058,2.0,39.68065201,7.6271751,-99999.0,'11133222,11111222,99999999' 
TABS,ioos:station:wmo:42049:1,2011-08-02T07:00:00Z,28.3507,-96.0058,2.0,52.71636422,8.584223902,-99999.0,'11133222,11111222,99999999' 
TABS,ioos:station:wmo:42049:1,2011-08-02T07:30:00Z,28.3507,-96.0058,2.0,35.99693377,8.268960031,-99999.0,'11133222,11111222,99999999' 
TABS,ioos:station:wmo:42049:1,2011-08-02T08:00:00Z,28.3507,-96.0058,2.0,49.64165051,10.74791608,-99999.0,'11111222,11111222,99999999' 
TABS,ioos:station:wmo:42049:1,2011-08-02T08:30:00Z,28.3507,-96.0058,2.0,57.76829664,10.46226075,-99999.0,'11111222,11111222,99999999' 
TABS,ioos:station:wmo:42049:1,2011-08-02T09:00:00Z,28.3507,-96.0058,2.0,63.80545177,10.37557227,-99999.0,'11111222,11111222,99999999' 
TABS,ioos:station:wmo:42049:1,2011-08-02T09:30:00Z,28.3507,-96.0058,2.0,56.77044853,7.938016125,-99999.0,'11133222,11111222,99999999' 
TABS,ioos:station:wmo:42049:1,2011-08-02T10:00:00Z,28.3507,-96.0058,2.0,83.10817898,10.66707551,-99999.0,'11111222,11111222,99999999' 
TABS,ioos:station:wmo:42049:1,2011-08-02T10:30:00Z,28.3507,-96.0058,2.0,84.52338974,10.47782897,-99999.0,'11111222,11111222,99999999' 
TABS,ioos:station:wmo:42049:1,2011-08-02T11:00:00Z,28.3507,-96.0058,2.0,80.03522693,7.685948217,-99999.0,'11133222,11111222,99999999' 
TABS,ioos:station:wmo:42049:1,2011-08-02T11:30:00Z,28.3507,-96.0058,2.0,73.83553865,2.155203007,-99999.0,'11133222,11111222,99999999' 
TABS,ioos:station:wmo:42049:1,2011-08-02T12:00:00Z,28.3507,-96.0058,2.0,100.7986199,3.736161131,-99999.0,'11133222,11111222,99999999' 
TABS,ioos:station:wmo:42049:1,2011-08-02T12:30:00Z,28.3507,-96.0058,2.0,79.69517763,6.149186938,-99999.0,'11133222,11111222,99999999' 
TABS,ioos:station:wmo:42049:1,2011-08-02T13:00:00Z,28.3507,-96.0058,2.0,93.2377263,5.488761245,-99999.0,'11133222,11111222,99999999' 
TABS,ioos:station:wmo:42049:1,2011-08-02T13:30:00Z,28.3507,-96.0058,2.0,94.86281507,7.195901611,-99999.0,'11133222,11111222,99999999' 
TABS,ioos:station:wmo:42049:1,2011-08-02T14:00:00Z,28.3507,-96.0058,2.0,91.97765503,7.244315012,-99999.0,'11133222,11111222,99999999' 
TABS,ioos:station:wmo:42049:1,2011-08-02T14:30:00Z,28.3507,-96.0058,2.0,117.7632751,11.12016187,-99999.0,'11111222,11111222,99999999' 
TABS,ioos:station:wmo:42049:1,2011-08-02T15:00:00Z,28.3507,-96.0058,2.0,111.7644887,8.657118458,-99999.0,'11133222,11111222,99999999' 
TABS,ioos:station:wmo:42049:1,2011-08-02T15:30:00Z,28.3507,-96.0058,2.0,91.75141627,8.834127008,-99999.0,'11133222,11111222,99999999' 
TABS,ioos:station:wmo:42049:1,2011-08-02T16:00:00Z,28.3507,-96.0058,2.0,116.839713,8.394295682,-99999.0,'11133222,11111222,99999999' 
TABS,ioos:station:wmo:42049:1,2011-08-02T16:30:00Z,28.3507,-96.0058,2.0,123.9321126,7.219487516,-99999.0,'11133222,11111222,99999999' 
TABS,ioos:station:wmo:42049:1,2011-08-02T17:00:00Z,28.3507,-96.0058,2.0,101.2089001,8.899764042,-99999.0,'11133222,11111222,99999999' 
TABS,ioos:station:wmo:42049:1,2011-08-02T17:30:00Z,28.3507,-96.0058,2.0,95.26820809,7.732664483,-99999.0,'11133222,11111222,99999999' 
TABS,ioos:station:wmo:42049:1,2011-08-02T18:00:00Z,28.3507,-96.0058,2.0,77.92347185,4.397317364,-99999.0,'11133222,11111222,99999999' 
TABS,ioos:station:wmo:42049:1,2011-08-02T18:30:00Z,28.3507,-96.0058,2.0,90.34724209,4.950090908,-99999.0,'11133222,11111222,99999999' 
TABS,ioos:station:wmo:42049:1,2011-08-02T19:00:00Z,28.3507,-96.0058,2.0,86.88382901,6.990336186,-99999.0,'11133222,11111222,99999999' 
TABS,ioos:station:wmo:42049:1,2011-08-02T19:30:00Z,28.3507,-96.0058,2.0,62.16286704,6.445936705,-99999.0,'11133222,11111222,99999999' 
TABS,ioos:station:wmo:42049:1,2011-08-02T20:00:00Z,28.3507,-96.0058,2.0,66.72572598,7.94667226,-99999.0,'11133222,11111222,99999999' 
TABS,ioos:station:wmo:42049:1,2011-08-02T20:30:00Z,28.3507,-96.0058,2.0,87.99585575,7.434547733,-99999.0,'11133222,11111222,99999999' 
TABS,ioos:station:wmo:42049:1,2011-08-02T21:00:00Z,28.3507,-96.0058,2.0,81.89710965,5.959496623,-99999.0,'11133222,11111222,99999999' 
TABS,ioos:station:wmo:42049:1,2011-08-02T21:30:00Z,28.3507,-96.0058,2.0,76.69939673,4.911751215,-99999.0,'11133222,11111222,99999999' 
TABS,ioos:station:wmo:42049:1,2011-08-02T22:00:00Z,28.3507,-96.0058,2.0,80.20278138,3.937423015,-99999.0,'11133222,11111222,99999999' 
TABS,ioos:station:wmo:42049:1,2011-08-02T22:30:00Z,28.3507,-96.0058,2.0,88.37502744,5.642269047,-99999.0,'11133222,11111222,99999999' 
TABS,ioos:station:wmo:42049:1,2011-08-02T23:00:00Z,28.3507,-96.0058,2.0,66.76188581,5.70263974,-99999.0,'11133222,11111222,99999999' 
TABS,ioos:station:wmo:42049:1,2011-08-02T23:30:00Z,28.3507,-96.0058,2.0,73.46239289,6.112871666,-99999.0,'11133222,11111222,99999999' 
TABS,ioos:station:wmo:42049:1,2011-08-03T00:00:00Z,28.3507,-96.0058,2.0,53.05692052,4.692003836,-99999.0,'11133222,11111222,99999999' 
TABS,ioos:station:wmo:42049:1,2011-08-03T00:30:00Z,28.3507,-96.0058,2.0,41.95994552,4.666401183,-99999.0,'11133222,11111222,99999999' 
TABS,ioos:station:wmo:42049:1,2011-08-03T01:00:00Z,28.3507,-96.0058,2.0,61.27974036,4.162030754,-99999.0,'11133222,11111222,99999999' 
TABS,ioos:station:wmo:42049:1,2011-08-03T01:30:00Z,28.3507,-96.0058,2.0,77.52005656,5.090275042,-99999.0,'11133222,11111222,99999999' 
TABS,ioos:station:wmo:42049:1,2011-08-03T02:00:00Z,28.3507,-96.0058,2.0,85.42608944,4.514377033,-99999.0,'11133222,11111222,99999999' 
TABS,ioos:station:wmo:42049:1,2011-08-03T02:30:00Z,28.3507,-96.0058,2.0,64.11555082,6.024392086,-99999.0,'11133222,11111222,99999999' 
TABS,ioos:station:wmo:42049:1,2011-08-03T03:00:00Z,28.3507,-96.0058,2.0,41.22962671,4.946311757,-99999.0,'11133222,11111222,99999999' 
TABS,ioos:station:wmo:42049:1,2011-08-03T03:30:00Z,28.3507,-96.0058,2.0,69.28885061,6.051049496,-99999.0,'11133222,11111222,99999999' 
TABS,ioos:station:wmo:42049:1,2011-08-03T04:00:00Z,28.3507,-96.0058,2.0,61.61714261,9.445432759,-99999.0,'11133222,11111222,99999999' 
TABS,ioos:station:wmo:42049:1,2011-08-03T04:30:00Z,28.3507,-96.0058,2.0,58.21060432,9.282467344,-99999.0,'11133222,11111222,99999999' 
TABS,ioos:station:wmo:42049:1,2011-08-03T05:00:00Z,28.3507,-96.0058,2.0,67.02584533,7.711685938,-99999.0,'11133222,11111222,99999999' 
TABS,ioos:station:wmo:42049:1,2011-08-03T05:30:00Z,28.3507,-96.0058,2.0,53.81792787,8.164588171,-99999.0,'11133222,11111222,99999999' 
TABS,ioos:station:wmo:42049:1,2011-08-03T06:00:00Z,28.3507,-96.0058,2.0,51.68505485,11.41963222,-99999.0,'11111222,11111222,99999999' 
TABS,ioos:station:wmo:42049:1,2011-08-03T06:30:00Z,28.3507,-96.0058,2.0,60.75850456,11.01346903,-99999.0,'11111222,11111222,99999999' 
TABS,ioos:station:wmo:42049:1,2011-08-03T07:00:00Z,28.3507,-96.0058,2.0,63.85837008,12.71015736,-99999.0,'11111222,11111222,99999999' 
TABS,ioos:station:wmo:42049:1,2011-08-03T07:30:00Z,28.3507,-96.0058,2.0,58.37721996,12.22522801,-99999.0,'11111222,11111222,99999999' 
TABS,ioos:station:wmo:42049:1,2011-08-03T08:00:00Z,28.3507,-96.0058,2.0,71.49760828,13.42387798,-99999.0,'11111222,11111222,99999999' 
TABS,ioos:station:wmo:42049:1,2011-08-03T08:30:00Z,28.3507,-96.0058,2.0,61.34344141,11.88591183,-99999.0,'11111222,11111222,99999999' 
TABS,ioos:station:wmo:42049:1,2011-08-03T09:00:00Z,28.3507,-96.0058,2.0,73.58101583,10.96724213,-99999.0,'11111222,11111222,99999999' 
TABS,ioos:station:wmo:42049:1,2011-08-03T09:30:00Z,28.3507,-96.0058,2.0,63.86672454,12.46419673,-99999.0,'11111222,11111222,99999999' 
TABS,ioos:station:wmo:42049:1,2011-08-03T10:00:00Z,28.3507,-96.0058,2.0,77.29729779,12.50609851,-99999.0,'11111222,11111222,99999999' 
TABS,ioos:station:wmo:42049:1,2011-08-03T10:30:00Z,28.3507,-96.0058,2.0,71.80968467,11.85232467,-99999.0,'11111222,11111222,99999999' 
TABS,ioos:station:wmo:42049:1,2011-08-03T11:00:00Z,28.3507,-96.0058,2.0,77.69445025,4.175943007,-99999.0,'11133222,11111222,99999999' 
TABS,ioos:station:wmo:42049:1,2011-08-03T12:00:00Z,28.3507,-96.0058,2.0,78.35262352,5.993413051,-99999.0,'11133222,11111222,99999999' 
TABS,ioos:station:wmo:42049:1,2011-08-03T12:30:00Z,28.3507,-96.0058,2.0,79.70844665,11.58641014,-99999.0,'11111222,11111222,99999999' 
TABS,ioos:station:wmo:42049:1,2011-08-03T13:00:00Z,28.3507,-96.0058,2.0,69.93916129,10.69913081,-99999.0,'11111222,11111222,99999999' 
TABS,ioos:station:wmo:42049:1,2011-08-03T13:30:00Z,28.3507,-96.0058,2.0,89.34770584,10.54068309,-99999.0,'11111222,11111222,99999999' 
TABS,ioos:station:wmo:42049:1,2011-08-03T14:00:00Z,28.3507,-96.0058,2.0,85.15140316,8.400059524,-99999.0,'11133222,11111222,99999999' 
TABS,ioos:station:wmo:42049:1,2011-08-03T14:30:00Z,28.3507,-96.0058,2.0,81.95712457,5.57483632,-99999.0,'11133222,11111222,99999999' 
TABS,ioos:station:wmo:42049:1,2011-08-03T15:00:00Z,28.3507,-96.0058,2.0,100.0493251,9.627710008,-99999.0,'11133222,11111222,99999999' 
TABS,ioos:station:wmo:42049:1,2011-08-03T15:30:00Z,28.3507,-96.0058,2.0,88.4128693,7.943047274,-99999.0,'11133222,11111222,99999999' 
TABS,ioos:station:wmo:42049:1,2011-08-03T16:00:00Z,28.3507,-96.0058,2.0,74.37007531,8.982143397,-99999.0,'11133222,11111222,99999999' 
TABS,ioos:station:wmo:42049:1,2011-08-03T16:30:00Z,28.3507,-96.0058,2.0,93.30979657,8.313867933,-99999.0,'11133222,11111222,99999999' 
TABS,ioos:station:wmo:42049:1,2011-08-03T17:00:00Z,28.3507,-96.0058,2.0,74.22942419,9.45594522,-99999.0,'11133222,11111222,99999999' 
TABS,ioos:station:wmo:42049:1,2011-08-03T17:30:00Z,28.3507,-96.0058,2.0,74.16098062,7.400999932,-99999.0,'11133222,11111222,99999999' 
TABS,ioos:station:wmo:42049:1,2011-08-03T18:00:00Z,28.3507,-96.0058,2.0,72.97537044,8.094720502,-99999.0,'11133222,11111222,99999999' 
TABS,ioos:station:wmo:42049:1,2011-08-03T18:30:00Z,28.3507,-96.0058,2.0,43.50424554,4.604834416,-99999.0,'11133222,11111222,99999999' 
TABS,ioos:station:wmo:42049:1,2011-08-03T19:00:00Z,28.3507,-96.0058,2.0,79.20885325,3.898948576,-99999.0,'11133222,11111222,99999999' 
TABS,ioos:station:wmo:42049:1,2011-08-03T19:30:00Z,28.3507,-96.0058,2.0,64.16074385,6.355415014,-99999.0,'11133222,11111222,99999999' 
TABS,ioos:station:wmo:42049:1,2011-08-03T20:00:00Z,28.3507,-96.0058,2.0,58.1655444,7.10943739,-99999.0,'11133222,11111222,99999999' 
TABS,ioos:station:wmo:42049:1,2011-08-03T20:30:00Z,28.3507,-96.0058,2.0,60.41146164,5.002339453,-99999.0,'11133222,11111222,99999999' 
TABS,ioos:station:wmo:42049:1,2011-08-03T21:00:00Z,28.3507,-96.0058,2.0,51.19445829,6.74985185,-99999.0,'11133222,11111222,99999999' 
TABS,ioos:station:wmo:42049:1,2011-08-03T21:30:00Z,28.3507,-96.0058,2.0,47.61515631,5.889261414,-99999.0,'11133222,11111222,99999999' 
TABS,ioos:station:wmo:42049:1,2011-08-03T22:00:00Z,28.3507,-96.0058,2.0,46.62663583,9.217315227,-99999.0,'11133222,11111222,99999999' 
TABS,ioos:station:wmo:42049:1,2011-08-03T22:30:00Z,28.3507,-96.0058,2.0,38.57905942,11.06492205,-99999.0,'11111222,11111222,99999999' 
TABS,ioos:station:wmo:42049:1,2011-08-03T23:00:00Z,28.3507,-96.0058,2.0,54.55537648,7.880437805,-99999.0,'11133222,11111222,99999999' 
TABS,ioos:station:wmo:42049:1,2011-08-03T23:30:00Z,28.3507,-96.0058,2.0,50.63286289,10.87833167,-99999.0,'11111222,11111222,99999999' 
TABS,ioos:station:wmo:42049:1,2011-08-04T00:00:00Z,28.3507,-96.0058,2.0,41.56024358,6.481705023,-99999.0,'11133222,11111222,99999999' 
TABS,ioos:station:wmo:42049:1,2011-08-04T00:30:00Z,28.3507,-96.0058,2.0,38.97987998,7.551119122,-99999.0,'11133222,11111222,99999999' 
TABS,ioos:station:wmo:42049:1,2011-08-04T01:00:00Z,28.3507,-96.0058,2.0,64.19075138,7.120259827,-99999.0,'11133222,11111222,99999999' 
TABS,ioos:station:wmo:42049:1,2011-08-04T01:30:00Z,28.3507,-96.0058,2.0,63.46286493,9.199184746,-99999.0,'11133222,11111222,99999999' 
TABS,ioos:station:wmo:42049:1,2011-08-04T02:00:00Z,28.3507,-96.0058,2.0,77.90527121,8.447514427,-99999.0,'11133222,11111222,99999999' 
TABS,ioos:station:wmo:42049:1,2011-08-04T02:30:00Z,28.3507,-96.0058,2.0,65.60974997,12.37436867,-99999.0,'11111222,11111222,99999999' 
TABS,ioos:station:wmo:42049:1,2011-08-04T03:00:00Z,28.3507,-96.0058,2.0,66.80146373,12.87065655,-99999.0,'11111222,11111222,99999999' 
TABS,ioos:station:wmo:42049:1,2011-08-04T03:30:00Z,28.3507,-96.0058,2.0,60.46238785,15.09140484,-99999.0,'11111222,11111222,99999999' 
TABS,ioos:station:wmo:42049:1,2011-08-04T04:00:00Z,28.3507,-96.0058,2.0,59.85417542,14.17751741,-99999.0,'11111222,11111222,99999999' 
TABS,ioos:station:wmo:42049:1,2011-08-04T04:30:00Z,28.3507,-96.0058,2.0,62.11788846,13.81360561,-99999.0,'11111222,11111222,99999999' 
TABS,ioos:station:wmo:42049:1,2011-08-04T05:00:00Z,28.3507,-96.0058,2.0,51.81889595,14.76986798,-99999.0,'11111222,11111222,99999999' 
TABS,ioos:station:wmo:42049:1,2011-08-04T05:30:00Z,28.3507,-96.0058,2.0,62.26296606,16.17910072,-99999.0,'11111222,11111222,99999999' 
TABS,ioos:station:wmo:42049:1,2011-08-04T06:00:00Z,28.3507,-96.0058,2.0,57.90906544,15.60424622,-99999.0,'11111222,11111222,99999999' 
TABS,ioos:station:wmo:42049:1,2011-08-04T06:30:00Z,28.3507,-96.0058,2.0,57.29611097,13.21491582,-99999.0,'11111222,11111222,99999999' 
TABS,ioos:station:wmo:42049:1,2011-08-04T07:00:00Z,28.3507,-96.0058,2.0,54.72445479,14.23350976,-99999.0,'11111222,11111222,99999999' 
TABS,ioos:station:wmo:42049:1,2011-08-04T07:30:00Z,28.3507,-96.0058,2.0,60.14312651,13.31763493,-99999.0,'11111222,11111222,99999999' 
TABS,ioos:station:wmo:42049:1,2011-08-04T08:00:00Z,28.3507,-96.0058,2.0,55.22887264,13.81726818,-99999.0,'11111222,11111222,99999999' 
TABS,ioos:station:wmo:42049:1,2011-08-04T08:30:00Z,28.3507,-96.0058,2.0,61.20575151,12.18684947,-99999.0,'11111222,11111222,99999999' 
TABS,ioos:station:wmo:42049:1,2011-08-04T09:00:00Z,28.3507,-96.0058,2.0,43.47116176,11.39554738,-99999.0,'11111222,11111222,99999999' 
TABS,ioos:station:wmo:42049:1,2011-08-04T09:30:00Z,28.3507,-96.0058,2.0,52.71745694,12.21631696,-99999.0,'11111222,11111222,99999999' 
TABS,ioos:station:wmo:42049:1,2011-08-04T10:00:00Z,28.3507,-96.0058,2.0,55.80801015,12.02913546,-99999.0,'11111222,11111222,99999999' 
TABS,ioos:station:wmo:42049:1,2011-08-04T10:30:00Z,28.3507,-96.0058,2.0,56.05715348,13.82603703,-99999.0,'11111222,11111222,99999999' 
TABS,ioos:station:wmo:42049:1,2011-08-04T11:00:00Z,28.3507,-96.0058,2.0,80.37186639,5.680008803,-99999.0,'11133222,11111222,99999999' 
TABS,ioos:station:wmo:42049:1,2011-08-04T11:30:00Z,28.3507,-96.0058,2.0,87.26828349,5.035722391,-99999.0,'11133222,11111222,99999999' 
TABS,ioos:station:wmo:42049:1,2011-08-04T12:00:00Z,28.3507,-96.0058,2.0,90.82488031,7.640791844,-99999.0,'11133222,11111222,99999999' 
TABS,ioos:station:wmo:42049:1,2011-08-04T12:30:00Z,28.3507,-96.0058,2.0,78.82463002,13.36339029,-99999.0,'11111222,11111222,99999999' 
TABS,ioos:station:wmo:42049:1,2011-08-04T13:00:00Z,28.3507,-96.0058,2.0,86.11581261,11.95746629,-99999.0,'11111222,11111222,99999999' 
TABS,ioos:station:wmo:42049:1,2011-08-04T13:30:00Z,28.3507,-96.0058,2.0,87.71933672,13.82094787,-99999.0,'11111222,11111222,99999999' 
TABS,ioos:station:wmo:42049:1,2011-08-04T14:00:00Z,28.3507,-96.0058,2.0,91.82267931,10.37524939,-99999.0,'11111222,11111222,99999999' 
TABS,ioos:station:wmo:42049:1,2011-08-04T14:30:00Z,28.3507,-96.0058,2.0,104.9642447,13.47704715,-99999.0,'11111222,11111222,99999999' 
TABS,ioos:station:wmo:42049:1,2011-08-04T15:00:00Z,28.3507,-96.0058,2.0,108.9662257,12.27648973,-99999.0,'11111222,11111222,99999999' 
TABS,ioos:station:wmo:42049:1,2011-08-04T15:30:00Z,28.3507,-96.0058,2.0,100.2696825,11.66691047,-99999.0,'11111222,11111222,99999999' 
TABS,ioos:station:wmo:42049:1,2011-08-04T16:00:00Z,28.3507,-96.0058,2.0,99.57204261,9.44145116,-99999.0,'11133222,11111222,99999999' 
TABS,ioos:station:wmo:42049:1,2011-08-04T16:30:00Z,28.3507,-96.0058,2.0,108.9939579,10.04703439,-99999.0,'11111222,11111222,99999999' 